Stations météo

Publicité
Le Touquet, France (7003): Température de l'air & dewpoint: 19.07.2017 10:00:00 - 25.07.2017 10:00:00 (CEST)Le Touquet, France (7003): Température de l'air 5cm: 19.07.2017 10:00:00 - 25.07.2017 10:00:00 (CEST)Le Touquet, France (7003): Vitesse du vent & gusts: 19.07.2017 10:00:00 - 25.07.2017 10:00:00 (CEST)Le Touquet, France (7003): Direction du vent: 19.07.2017 10:00:00 - 25.07.2017 10:00:00 (CEST)Le Touquet, France (7003): reduced air pressure: 19.07.2017 10:00:00 - 25.07.2017 10:00:00 (CEST)Le Touquet, France (7003): visibility: 19.07.2017 10:00:00 - 25.07.2017 10:00:00 (CEST)Le Touquet, France (7003): Ensoleillement: 19.07.2017 10:00:00 - 25.07.2017 10:00:00 (CEST)Le Touquet, France (7003): Quantités de précipitations: 19.07.2017 10:00:00 - 25.07.2017 10:00:00 (CEST)
Date & Time tt [°C] td [°C] tt 5cm [°C] ff [km/h] ff [knt] fx [km/h] fx [knt] dd ppp [hPa] vv [km] sd [min] rr [mm]
25.07.2017 10:00:00 16,0 14,0 15,6 22 12 31 17 NNW 1015,8 20 0 0,0
25.07.2017 09:00:00 15,6 14,0 15,3 13 7 30 16 NNW 1015,7 18 0 0,0
25.07.2017 08:00:00 15,3 14,0 15,0 22 12 33 18 NNW 1015,4 14 0 0,0
25.07.2017 07:00:00 15,4 13,9 15,2 21 12 33 18 NNW 1015,4 15 0 0,0
25.07.2017 06:00:00 15,5 14,4 14,8 18 10 36 19 NNW 1015,4 16 0 0,0
25.07.2017 05:00:00 15,5 14,2 14,7 24 13 36 19 NNW 1015,3 18 0 0,0
25.07.2017 04:00:00 15,4 14,3 14,7 24 13 38 21 NNW 1015,3 20 0 0,0
25.07.2017 03:00:00 15,5 14,4 14,6 26 14 38 21 NNW 1015,6 7 0 0,0
25.07.2017 02:00:00 15,2 14,2 14,5 30 16 39 21 NNW 1015,8 3,2 0 0,6
25.07.2017 01:00:00 15,1 14,0 14,4 23 12 37 20 NW 1015,9 6 0 0,6
25.07.2017 00:00:00 15,2 13,9 14,5 23 12 39 21 NW 1016,0 14 0 0,4
24.07.2017 23:00:00 16,1 13,0 15,5 26 14 42 23 NNW 1015,9 39 0 0,0
24.07.2017 22:00:00 16,1 12,8 16,0 27 15 45 25 NNW 1015,7 36 0 0,0
24.07.2017 21:00:00 16,4 12,9 16,4 29 16 45 24 NNW 1015,2 42 0 0,0
24.07.2017 20:00:00 16,6 13,1 16,8 30 16 48 26 NW 1014,9 33 0 0,0
24.07.2017 19:00:00 17,2 13,9 17,5 35 19 52 28 NNW 1014,5 21 0 0,0
24.07.2017 18:00:00 17,1 13,8 17,2 28 15 45 24 NW 1014,4 24 0 0,0
24.07.2017 17:00:00 17,1 13,8 17,1 25 13 42 23 NW 1014,1 20 0 0,0
24.07.2017 16:00:00 17,1 13,6 18,2 31 17 42 23 NW 1013,6 34 0 0,0
24.07.2017 15:00:00 18,4 14,7 21,6 26 14 39 21 NW 1013,2 20 29 0,0
24.07.2017 14:00:00 18,2 13,3 20,0 23 12 33 18 NW 1012,5 25 26 0,0
24.07.2017 13:00:00 17,4 14,1 17,0 22 12 35 19 NNW 1012,3 29 3 0,0
24.07.2017 12:00:00 16,5 14,3 16,1 21 11 30 16 N 1011,9 43 0 0,0
24.07.2017 11:00:00 16,2 14,4 16,6 12 6 20 11 WNW 1011,3 19 0 0,0
24.07.2017 10:00:00 16,0 13,7 15,4 9 5 14 8 NW 1011,1 50 0 0,0
24.07.2017 09:00:00 15,3 14,2 14,6 10 5 26 14 NNW 1010,7 20 0 0,4
24.07.2017 08:00:00 15,9 14,4 15,3 7 4 19 10 NW 1010,5 20 0 0,4
24.07.2017 07:00:00 16,2 13,9 15,2 7 4 15 8 W 1010,6 50 0 0,0
24.07.2017 06:00:00 16,0 13,7 15,0 8 4 20 11 WNW 1010,6 44 0 0,0
24.07.2017 05:00:00 16,0 13,7 14,9 11 6 24 13 WNW 1010,9 39 0 0,2
24.07.2017 04:00:00 16,5 13,4 15,7 16 9 28 15 WNW 1011,1 54 0 0,0
24.07.2017 03:00:00 16,5 13,8 14,9 11 6 26 14 W 1011,4 46 0 0,0
24.07.2017 02:00:00 16,1 13,0 14,9 13 7 28 15 W 1011,9 52 0 0,0
24.07.2017 01:00:00 16,2 13,5 15,1 16 9 29 16 WNW 1012,3 44 0 0,0
24.07.2017 00:00:00 16,3 12,5 15,7 14 8 29 16 W 1012,4 49 0 0,0
23.07.2017 23:00:00 16,3 13,6 15,5 16 9 31 17 W 1012,8 20 0 0,0
23.07.2017 22:00:00 16,8 12,7 16,0 15 8 28 15 W 1013,1 38 0 0,0
23.07.2017 21:00:00 16,9 12,6 16,6 16 9 32 17 W 1013,0 39 0 0,0
23.07.2017 20:00:00 17,1 12,6 17,2 15 8 31 17 WSW 1013,3 43 0 0,0
23.07.2017 19:00:00 17,3 12,0 18,1 15 8 36 19 W 1013,7 33 0 0,0
23.07.2017 18:00:00 17,6 11,8 19,4 20 11 39 21 W 1014,0 36 9 0,0
23.07.2017 17:00:00 18,8 12,3 21,4 23 12 44 24 WSW 1014,2 11 55 0,0
23.07.2017 16:00:00 18,7 12,4 22,2 23 12 45 24 WSW 1014,4 14 43 0,0
23.07.2017 15:00:00 18,6 13,0 21,6 27 14 42 23 WSW 1014,4 15 41 0,0
23.07.2017 14:00:00 19,0 13,6 19,7 22 12 36 19 WSW 1014,3 21 20 0,0
23.07.2017 13:00:00 17,4 13,1 18,7 19 10 40 22 W 1014,1 19 13 0,0
23.07.2017 12:00:00 17,8 12,3 20,7 21 11 35 19 W 1013,7 23 46 0,0
23.07.2017 11:00:00 17,4 12,1 19,9 18 10 35 19 W 1013,2 28 38 0,0
23.07.2017 10:00:00 17,2 12,5 17,6 15 8 27 15 W 1012,9 41 22 0,0
23.07.2017 09:00:00 16,1 13,6 14,1 11 6 25 13 W 1012,1 42 5 0,6
23.07.2017 08:00:00 16,1 13,2 14,6 15 8 31 17 WSW 1011,5 37 0 0,0
23.07.2017 07:00:00 15,7 13,2 13,9 16 8 33 18 WSW 1011,2 37 0 0,0
23.07.2017 06:00:00 14,8 13,3 13,8 12 6 40 22 WSW 1010,8 36 0 2,7
23.07.2017 05:00:00 14,9 13,6 13,6 16 9 45 24 SSW 1010,6 14 0 1,6
23.07.2017 04:00:00 14,6 13,5 13,0 12 6 27 14 SSW 1010,9 11 0 1,2
23.07.2017 03:00:00 14,8 11,9 12,6 10 6 26 14 S 1011,0 60 0 0,0
23.07.2017 02:00:00 13,4 11,8 12,6 11 6 18 10 SE 1011,5 41 0 0,2
23.07.2017 01:00:00 13,8 11,7 12,2 10 5 15 8 SSE 1011,9 56 0 0,0
23.07.2017 00:00:00 13,1 11,7 11,9 8 4 10 5 SE 1011,9 39 0 0,0
22.07.2017 23:00:00 13,9 11,1 12,4 6 3 34 18 SSE 1011,8 60 0 0,2
22.07.2017 22:00:00 15,4 11,0 13,4 6 4 18 10 WSW 1011,2 9 8 0,0
22.07.2017 21:00:00 15,7 10,7 14,8 5 3 21 12 SW 1011,2 60 25 0,0
22.07.2017 20:00:00 17,5 11,5 15,5 10 6 27 14 WSW 1011,3 54 44 0,0
22.07.2017 19:00:00 15,5 12,8 14,4 9 5 42 23 WSW 1011,4 45 0 1,2
22.07.2017 18:00:00 18,4 10,7 19,8 18 10 29 15 SW 1011,1 59 0 0,0
22.07.2017 17:00:00 18,4 11,2 20,7 12 6 22 12 WSW 1010,9 60 2 0,0
22.07.2017 16:00:00 19,0 10,8 20,7 9 5 26 14 SW 1010,5 60 4 0,0
22.07.2017 15:00:00 18,9 11,2 21,9 14 7 34 19 WSW 1011,1 26 42 0,0
22.07.2017 14:00:00 19,5 11,3 23,0 16 9 32 17 SW 1010,9 44 57 0,0
22.07.2017 13:00:00 18,8 12,3 22,8 20 11 33 18 SW 1010,7 26 48 0,0
22.07.2017 12:00:00 18,4 12,6 19,5 18 10 29 15 SW 1010,6 34 6 0,0
22.07.2017 11:00:00 17,6 12,9 18,8 11 6 19 11 SW 1010,3 45 4 0,0
22.07.2017 10:00:00 17,3 12,0 17,0 13 7 21 11 SW 1009,9 60 0 0,0
22.07.2017 09:00:00 16,8 14,1 - 8 4 16 9 SW 1009,8 10 - 0,0
22.07.2017 08:00:00 15,7 14,1 14,2 5 3 16 9 WSW 1009,3 60 0 0,2
22.07.2017 07:00:00 14,9 13,6 13,9 13 7 26 14 S 1009,1 6 0 0,8
22.07.2017 06:00:00 14,8 13,0 13,8 9 5 18 10 SE 1008,6 19 0 1,0
22.07.2017 05:00:00 16,9 11,2 14,6 9 5 20 11 S 1008,4 17 0 0,0
22.07.2017 04:00:00 16,2 10,5 13,0 9 5 14 8 SSE 1008,2 60 0 0,0
22.07.2017 03:00:00 14,9 10,3 13,1 9 5 12 6 SE 1008,3 60 0 0,0
22.07.2017 02:00:00 15,4 10,6 13,5 9 5 11 6 SE 1008,5 60 0 0,0
22.07.2017 01:00:00 15,6 11,0 14,2 9 5 12 6 SE 1008,8 59 0 0,0
22.07.2017 00:00:00 16,3 11,2 14,6 9 5 11 6 SE 1008,8 52 0 0,0
21.07.2017 23:00:00 16,5 11,2 14,1 7 4 11 6 SE 1008,8 47 0 0,0
21.07.2017 22:00:00 18,9 10,7 15,8 6 4 9 5 SSE 1008,6 17 17 0,0
21.07.2017 21:00:00 21,2 9,4 20,0 6 4 14 7 S 1008,6 19 60 0,0
21.07.2017 20:00:00 21,9 8,7 22,5 7 4 14 7 SW 1008,5 34 60 0,0
21.07.2017 19:00:00 21,2 9,1 23,4 8 5 15 8 N 1008,8 21 60 0,0
21.07.2017 18:00:00 20,6 10,7 23,5 8 5 22 12 NNW 1009,3 43 49 0,0
21.07.2017 17:00:00 20,8 10,9 25,6 15 8 24 13 NNW 1009,7 22 60 0,0
21.07.2017 16:00:00 20,9 12,3 28,0 12 7 22 12 NNW 1010,2 26 60 0,0
21.07.2017 15:00:00 20,5 12,2 24,7 13 7 24 13 WNW 1010,6 20 48 0,0
21.07.2017 14:00:00 20,2 11,9 22,2 11 6 24 13 WSW 1010,9 31 23 0,0
21.07.2017 13:00:00 20,0 12,0 22,2 15 8 29 16 WSW 1011,2 36 26 0,0
21.07.2017 12:00:00 21,0 12,2 22,8 19 10 35 19 S 1011,5 23 39 0,0
21.07.2017 11:00:00 20,5 11,7 20,6 18 10 32 18 SSE 1012,0 31 55 0,0
21.07.2017 10:00:00 17,6 11,2 16,5 17 9 29 15 SE 1012,6 50 21 0,0
21.07.2017 09:00:00 14,4 10,6 13,5 16 8 21 11 ESE 1012,8 60 3 0,0
21.07.2017 08:00:00 12,5 10,2 12,2 12 7 18 10 ESE 1012,9 16 55 0,0
21.07.2017 07:00:00 10,9 9,5 9,5 11 6 16 8 ESE 1012,9 13 22 0,0
21.07.2017 06:00:00 10,3 9,2 9,3 9 5 14 8 ESE 1013,2 37 0 0,0
21.07.2017 05:00:00 10,7 9,5 9,6 9 5 13 7 SE 1013,3 37 0 0,0
21.07.2017 04:00:00 10,8 9,6 9,6 8 4 11 6 ESE 1013,7 38 0 0,0
21.07.2017 03:00:00 11,6 9,5 10,6 10 5 13 7 SE 1014,0 43 0 0,0
21.07.2017 02:00:00 15,0 10,0 11,1 5 3 19 10 SW 1014,0 49 0 0,0
21.07.2017 01:00:00 15,4 9,5 14,0 7 4 23 12 WSW 1013,8 50 0 0,0
21.07.2017 00:00:00 15,8 10,1 14,3 11 6 23 13 W 1014,1 42 0 0,0
20.07.2017 23:00:00 16,1 10,0 14,7 14 8 33 18 W 1014,0 46 0 0,0
20.07.2017 22:00:00 16,1 9,7 15,0 15 8 36 19 W 1013,9 41 18 0,0
20.07.2017 21:00:00 16,5 10,1 16,4 19 10 42 23 W 1013,6 39 60 0,0
20.07.2017 20:00:00 17,3 10,7 17,9 19 11 49 27 W 1013,5 30 24 0,0
20.07.2017 19:00:00 17,6 9,5 18,9 21 11 50 27 W 1013,1 12 57 0,0
20.07.2017 18:00:00 18,2 10,3 21,1 23 13 47 25 W 1012,8 11 60 0,0
20.07.2017 17:00:00 18,3 10,9 19,6 27 15 51 28 W 1012,4 13 42 0,0
20.07.2017 16:00:00 18,5 11,6 19,8 29 16 56 31 WSW 1012,1 19 44 0,0
20.07.2017 15:00:00 17,8 12,9 18,9 27 15 54 29 WSW 1011,4 20 23 0,0
20.07.2017 14:00:00 17,3 14,2 18,5 29 16 54 29 WSW 1010,3 20 0 0,0
20.07.2017 13:00:00 17,5 15,8 17,6 21 11 49 26 WSW 1009,3 19 0 0,0
20.07.2017 12:00:00 18,3 17,3 17,7 24 13 50 27 WSW 1008,2 12 3 4,1
20.07.2017 11:00:00 18,3 17,0 17,9 22 12 47 25 SW 1007,9 4,8 0 0,6
20.07.2017 10:00:00 19,8 16,1 20,1 17 9 39 21 SSW 1007,6 15 8 0,0
20.07.2017 09:00:00 20,1 15,9 20,0 20 11 39 21 SSW 1007,4 16 38 0,0
20.07.2017 08:00:00 19,4 16,2 18,6 16 9 29 16 SSW 1007,3 33 0 0,0
20.07.2017 07:00:00 19,1 17,1 17,9 10 5 20 11 SSW 1007,3 41 22 0,0
20.07.2017 06:00:00 19,0 17,3 17,9 8 4 18 10 SSW 1007,5 37 0 0,0
20.07.2017 05:00:00 19,0 17,8 18,2 8 4 19 10 SW 1007,5 30 0 0,0
20.07.2017 04:00:00 18,7 17,9 17,7 6 3 15 8 S 1007,6 9 0 1,0
20.07.2017 03:00:00 18,3 17,0 17,4 5 3 10 6 SSE 1008,2 9 0 0,0
20.07.2017 02:00:00 18,3 16,8 17,8 6 3 10 5 SE 1008,5 11 0 0,0
20.07.2017 01:00:00 18,6 16,6 18,1 5 3 8 4 SSE 1008,5 17 0 0,0
20.07.2017 00:00:00 18,6 16,4 17,5 4 2 10 6 S 1008,7 10 0 0,0
19.07.2017 23:00:00 18,4 16,2 17,9 6 3 18 10 NW 1008,7 17 0 0,0
19.07.2017 22:00:00 18,8 16,9 18,8 13 7 19 11 NW 1008,6 14 0 0,0
19.07.2017 21:00:00 20,2 17,2 20,7 11 6 23 12 NW 1008,1 17 0 0,0
19.07.2017 20:00:00 20,9 17,3 21,6 9 5 27 14 W 1008,2 28 0 0,0
19.07.2017 19:00:00 21,9 16,8 23,3 16 9 35 19 W 1008,1 24 41 0,0
19.07.2017 18:00:00 21,2 16,6 23,2 13 7 24 13 W 1007,9 18 0 0,0
19.07.2017 17:00:00 21,8 16,1 25,5 15 8 37 20 W 1008,1 18 42 0,0
19.07.2017 16:00:00 22,7 16,3 26,6 19 10 31 17 W 1008,1 18 18 0,0
19.07.2017 15:00:00 22,9 16,9 28,1 13 7 31 17 W 1008,3 11 56 0,0
19.07.2017 14:00:00 22,8 17,9 30,1 16 9 32 17 W 1008,1 12 60 0,0
19.07.2017 13:00:00 23,4 17,8 30,7 12 7 27 15 WSW 1007,7 13 60 0,0
19.07.2017 12:00:00 22,6 17,9 22,7 14 8 25 14 W 1007,7 13 39 0,0
19.07.2017 11:00:00 20,8 18,0 22,6 10 5 21 12 WSW 1007,8 12 0 0,0
19.07.2017 10:00:00 21,6 18,2 24,0 12 7 27 14 W 1007,2 17 19 0,0

tt = Température de l'air
td = dewpoint
tt 5cm = Température de l'air 5cm
ff = Vitesse du vent
fx = gusts
dd = Direction du vent
ppp = reduced air pressure
vv = visibility
sd = Ensoleillement
rr = Quantités de précipitations

stations d'obs. à proximité